User: anonymous   Login
Location: *
(37.5724°S, 58.0067°E)
Time: 17:32:56
(UTC+00:00)
Language:

Aureole 3 Rocket - Orbit

View from above orbital plane
View from above orbital plane
View from above satellite
View from above satellite

Ground track
Ground track

The orbit data is extracted from the following two-line orbital elements,

1 12849U 81094B   20330.93315178 +.00000439 +00000-0 +40649-4 0  9994
2 12849 082.4919 281.0714 0899428 271.6218 078.2232 13.50749408911702
Epoch (UTC): 25 November 2020 22:23:44
Eccentricity: 0.0899428
inclination: 82.4919°
perigee height: 399 km
apogee height: 1739 km
right ascension of ascending node: 281.0714°
argument of perigee: 271.6218°
revolutions per day: 13.50749408
mean anomaly at epoch: 78.2232°
orbit number at epoch: 91170

The dashed part of the orbit path shows where the satellite is in the earth's shadow,  

DLR